Regional Weather Roundup
Issued by NWS Green Bay, WI

Home | Current Version | Previous Version | Graphics & Text | Print | Product List | Glossary Off
Versions: 1 2 3 4 5 6 7 8 9 10 11 12 13 14 15 16 17 18 19 20 21 22 23 24 25 26 27 28 29 30 31 32 33 34 35 36 37 38 39 40 41 42 43 44 45 46 47 48 49 50

000
ASUS43 KGRB 050810
RWRGRB

NORTH-CENTRAL AND NORTHEAST WISCONSIN REGIONAL WEATHER ROUNDUP
NATIONAL WEATHER SERVICE GREEN BAY WI
300 AM CDT TUE MAY 05 2015

WIZ005-009-010>012-018-019-050900-
NORTH CENTRAL WISCONSIN

CITY           SKY/WX    TMP DP  RH WIND       PRES   REMARKS
IRONWOOD       CLEAR     36  30  80 CALM      30.26R
MANITOWISH WTR CLEAR     35  32  88 CALM      30.29S
ARBOR VITAE    CLEAR     42  34  74 CALM      30.28F
EAGLE RIVER    CLEAR     37  33  82 CALM      30.29S
LAND O LAKES   CLEAR     33  33  97 CALM      30.30F
RHINELANDER    CLEAR     43  36  76 CALM      30.29F
PHILLIPS       CLEAR     42  31  64 CALM      30.27S
ANTIGO         MOCLDY    44  34  67 E6        30.28F
TOMAHAWK       PTCLDY    34  31  89 CALM      30.29S
MERRILL        PTCLDY    40  38  91 NE3       30.28S
$$

WIZ013-073-050900-
NORTHEAST WISCONSIN

CITY           SKY/WX    TMP DP  RH WIND       PRES   REMARKS
IRON MOUNTAIN  CLEAR     38  34  85 CALM      30.29R
MARINETTE      MOCLDY    45  34  65 NW3       30.28S
OCONTO         MOCLDY    41  37  86 CALM      30.29R
$$

WIZ017-030-035>037-045-050900-
CENTRAL WISCONSIN

CITY           SKY/WX    TMP DP  RH WIND       PRES   REMARKS
MEDFORD        PTCLDY    44  37  76 E7        30.26S
WAUSAU         MOCLDY    48  37  65 E6        30.25F
MOSINEE        CLOUDY    45  37  76 E8        30.27S
MARSHFIELD     CLOUDY    50  40  68 E10       30.24S
WISC RAPIDS    CLOUDY    52  36  54 E7        30.24F
STEVENS POINT  CLOUDY    47  37  68 NE8       30.26S
WAUPACA        CLOUDY    50  40  68 N5        30.26S
SHAWANO        CLOUDY    51  39  63 NE7       30.28S
CLINTONVILLE   CLOUDY    46  36  66 NE5       30.27S
$$

WIZ038-039-048-051-050900-
FOX VALLEY

CITY           SKY/WX    TMP DP  RH WIND       PRES   REMARKS
NWS GREEN BAY  CLOUDY    49  38  65 NE8       30.26S
APPLETON       CLOUDY    50  32  50 NE9       30.25S
OSHKOSH        CLOUDY    54  34  46 NE8       30.23S
FOND DU LAC    CLOUDY    54  32  43 E10       30.22S
$$

WIZ022-050-052-050900-
EAST CENTRAL WISCONSIN

CITY           SKY/WX    TMP DP  RH WIND       PRES   REMARKS
STURGEON BAY   MOCLDY    46  32  57 NE7       30.30S
MANITOWOC      CLOUDY    48  36  63 N5        30.25S
SHEBOYGAN      CLOUDY    47  37  68 NE10      30.24R
$$

LMZ563-521-522-541>543-050900-
LAKESHORE

STATION/POSITION TIME  TEMP    WIND        PRES    VSBY  WAVE
                       AIR SEA DIR/SP/G                  HT/PER
                 (UTC) (F)     (DEG/KT/KT) (MB)    (MI)  (FT/S)
SHEBOYGAN LKSHOR 0800   45      10/ 10/ 12 1024.8R
KEWAUNEE LKSHORE 0800   47      20/  8/ 12 1024.1R
NORTHPORT PIER   0800   44      CALM  /  2 1025.7S
SISTER BAY LKSHO 0800   47     110/  1/  6   N/A
CHAMBERS ISLAND  0800   44     340/  3/  4 1025.7S
MENOMINEE LKSHOR 0800   47     360/  5/  6 1025.9S
$$



USA.gov is the U.S. government's official web portal to all federal, state and local government web resources and services.